[[{"header":{"parameterUnit":"m.s-1","parameterCategory":1,"la1":30.2991,"la2":30.254,"lo1":-89.0895,"lo2":-89.0444,"dy":0.0017,"dx":0.0017,"nx":28,"ny":28,"refTime":"2024-08-11T09:00:00:Z","depth":0,"parameterNumber":2,"parameterNumberName":"U-component_of_WINDS"},"data":[0,0,0,0,0,0,0,0,0,0,0,0,0,0,0,0,0,0,0,0,0,0,0,0,0,0,0,0,0,0,0,0,0,0,0,0,0,0,0,0,0,0,0,0,0,0,0,0,0,0,0,0,0,0,0,0,0,0,-1.3459,-1.3458,0,-1.3344,-1.3343,-1.3341,-1.3265,-1.3265,-1.3264,-1.3264,-1.3142,-1.3139,-1.3136,0,0,0,0,0,0,0,0,0,0,0,0,0,-1.3609,-1.3607,-1.346,-1.3458,-1.3457,-1.3344,-1.3342,-1.3341,-1.3265,-1.3265,-1.3264,-1.3263,-1.3143,-1.314,-1.3136,0,0,0,0,0,0,0,0,0,0,0,0,0,-1.3524,-1.3606,-1.346,-1.3405,-1.3399,-1.3344,-1.3342,-1.334,-1.3265,-1.3264,-1.3264,-1.3263,-1.3144,-1.314,-1.3136,-1.3125,0,0,-1.3123,-1.3121,0,0,0,0,0,0,0,0,-1.3529,-1.3518,-1.3415,-1.3409,-1.3402,-1.3318,-1.335,-1.3268,-1.3265,-1.3316,-1.3264,-1.3263,-1.3201,-1.3192,-1.3172,-1.3119,-1.3114,-1.3123,-1.312,-1.3118,-1.3117,0,0,0,0,0,0,0,-1.3535,-1.3523,-1.3414,-1.3413,-1.3406,-1.3385,-1.3372,-1.3334,-1.3264,-1.3312,-1.3306,-1.3293,-1.3197,-1.3176,-1.3168,-1.3112,-1.3123,-1.3119,-1.3117,-1.3115,-1.3039,-1.304,0,0,0,0,0,0,-1.355,-1.3528,-1.3417,-1.341,-1.3465,-1.3383,-1.3368,-1.3346,-1.3264,-1.3251,-1.3294,-1.329,-1.3184,-1.3173,-1.3164,-1.3143,-1.3118,-1.3114,-1.3112,-1.3039,-1.3039,-1.304,0,0,0,0,0,0,-1.3553,-1.3541,-1.3422,-1.3468,-1.3451,-1.3381,-1.3356,-1.3344,-1.3323,-1.3251,-1.3238,-1.3286,-1.3183,-1.317,-1.3134,-1.3137,-1.3113,-1.3109,-1.3038,-1.3039,-1.304,-1.3102,0,0,0,0,0,0,-1.3558,-1.3542,-1.3539,-1.3468,-1.3449,-1.3397,-1.3357,-1.3342,-1.3316,-1.331,-1.324,-1.3227,-1.3181,-1.3141,-1.313,-1.3131,-1.3106,-1.3038,-1.3039,-1.3039,-1.31,-1.3105,-1.311,0,0,0,0,0,-1.3564,-1.3562,-1.354,-1.3527,-1.3444,-1.3397,-1.3386,-1.3334,-1.3317,-1.3312,-1.3265,-1.3229,-1.3139,-1.3138,-1.3125,-1.3125,-1.3037,-1.3038,-1.3039,-1.3097,-1.3104,-1.311,0,0,0,0,0,0,-1.3635,-1.3552,-1.3526,-1.3502,-1.3457,-1.3384,-1.3377,-1.3343,-1.3301,-1.3297,-1.3233,-1.3218,-1.3188,-1.3153,-1.3153,-1.3108,-1.3083,-1.3082,-1.3132,-1.3138,-1.3143,-1.3151,-1.3102,0,0,0,0,0,-1.3648,-1.3619,-1.3547,-1.3532,-1.3511,-1.3448,-1.3425,-1.3389,-1.3339,-1.332,-1.3271,-1.3223,-1.3183,-1.3158,-1.3118,-1.3094,-1.3075,-1.3087,-1.3092,-1.3097,-1.3096,-1.3076,-1.308,-1.3044,-1.3044,-1.3044,0,0,-1.3674,-1.3625,-1.3611,-1.3545,-1.3506,-1.3474,-1.3432,-1.3402,-1.3377,-1.3315,-1.3278,-1.324,-1.3182,-1.3151,-1.3135,-1.3121,-1.3102,-1.3098,-1.3102,-1.3099,-1.3078,-1.3081,-1.3084,-1.3044,-1.3044,-1.3044,0,0,-1.3706,-1.3667,-1.3649,-1.361,-1.3552,-1.3509,-1.3505,-1.3436,-1.3408,-1.337,-1.3322,-1.329,-1.3225,-1.3184,-1.3155,-1.3167,-1.3132,-1.3156,-1.3182,-1.3164,-1.3166,-1.3168,-1.317,-1.3172,-1.3155,-1.3155,-1.3155,0,-1.3746,-1.3699,-1.3644,-1.3615,-1.3586,-1.3528,-1.3507,-1.3472,-1.3403,-1.3383,-1.3368,-1.3282,-1.3239,-1.3196,-1.3198,-1.3178,-1.3168,-1.3163,-1.3171,-1.3172,-1.3173,-1.3174,-1.3175,-1.3158,-1.3158,-1.3158,-1.3158,0,-1.3749,-1.3716,-1.3708,-1.3643,-1.3613,-1.3589,-1.3527,-1.3503,-1.3468,-1.3426,-1.3386,-1.3332,-1.3278,-1.3265,-1.3231,-1.3216,-1.3208,-1.3183,-1.3157,-1.3181,-1.318,-1.318,-1.3163,-1.3162,-1.3161,-1.316,0,0,-1.3824,-1.3727,-1.3724,-1.3692,-1.3622,-1.3594,-1.3565,-1.3513,-1.3492,-1.3446,-1.3418,-1.3361,-1.3336,-1.3303,-1.3263,-1.3248,-1.3257,-1.3223,-1.3221,-1.323,-1.3232,-1.3251,-1.3252,-1.3233,-1.3233,-1.3232,-1.3236,0,-1.3844,-1.3791,-1.3738,-1.3703,-1.367,-1.3613,-1.3587,-1.3539,-1.3498,-1.3463,-1.3417,-1.3377,-1.3349,-1.3327,-1.3309,-1.326,-1.3256,-1.3259,-1.3204,-1.3202,-1.3219,-1.3253,-1.3273,-1.3279,-1.3236,-1.3236,-1.3236,0,-1.386,-1.3815,-1.3777,-1.3706,-1.369,-1.3668,-1.3614,-1.3582,-1.3525,-1.3496,-1.3457,-1.3415,-1.3378,-1.3357,-1.3303,-1.3306,-1.328,-1.3252,-1.3251,-1.3243,-1.322,-1.3244,-1.3281,-1.3281,-1.3236,-1.3236,-1.3236,0,-1.3915,-1.3846,-1.3813,-1.3787,-1.3705,-1.369,-1.3655,-1.3597,-1.3568,-1.352,-1.3499,-1.3448,-1.3419,-1.3378,-1.3321,-1.3312,-1.3273,-1.3247,-1.3245,-1.3247,-1.324,-1.3241,-1.3271,-1.3226,-1.3226,-1.3226,-1.3226,0,-1.3942,-1.392,-1.3836,-1.3816,-1.3788,-1.3727,-1.37,-1.3659,-1.3608,-1.3577,-1.3524,-1.3495,-1.3422,-1.3384,-1.3339,-1.33,-1.3288,-1.3261,-1.3249,-1.3265,-1.3268,-1.3247,-1.3244,-1.3226,-1.3226,-1.3226,-1.3226,0,-1.3999,-1.3943,-1.3903,-1.3827,-1.3807,-1.379,-1.3724,-1.37,-1.3655,-1.3616,-1.3603,-1.3532,-1.3483,-1.3423,-1.3355,-1.3324,-1.3289,-1.3272,-1.3309,-1.3302,-1.3302,-1.3302,-1.3319,-1.3317,-1.3275,-1.3275,-1.3276,0,-1.402,-1.4001,-1.3923,-1.3898,-1.3864,-1.3826,-1.3795,-1.3733,-1.3703,-1.3635,-1.3618,-1.3566,-1.3521,-1.3445,-1.3386,-1.3333,-1.3313,-1.3322,-1.3304,-1.332,-1.331,-1.3311,-1.3308,-1.3327,-1.3327,-1.3328,-1.3329,0,-1.406,-1.4032,-1.3991,-1.3939,-1.3904,-1.3859,-1.3813,-1.3795,-1.3722,-1.369,-1.364,-1.3605,-1.3535,-1.3482,-1.3421,-1.3381,-1.3342,-1.3334,-1.3331,-1.3346,-1.3367,-1.3353,-1.3319,-1.3334,-1.3334,-1.3333,-1.3333,-1.3333,-1.4097,-1.4077,-1.4018,-1.3973,-1.3931,-1.3888,-1.3861,-1.3812,-1.377,-1.3708,-1.3674,-1.3624,-1.3563,-1.3477,-1.3438,-1.3396,-1.3382,-1.3378,-1.3376,-1.3376,-1.3379,-1.3375,-1.3385,-1.3385,-1.3385,-1.3385,-1.3384,0,-1.4133,-1.4092,-1.4051,-1.3987,-1.395,-1.3917,-1.3862,-1.3833,-1.3791,-1.3738,-1.3694,-1.3635,-1.3582,-1.3518,-1.3461,-1.344,-1.342,-1.3426,-1.3427,-1.3418,-1.3397,-1.3405,-1.3443,-1.3443,-1.3443,-1.3443,-1.3443,-1.3443,-1.4148,-1.411,-1.4075,-1.4015,-1.3973,-1.3925,-1.3896,-1.3854,-1.3812,-1.3748,-1.3705,-1.3664,-1.3605,-1.3543,-1.3492,-1.3474,-1.3455,-1.3467,-1.3443,-1.3425,-1.342,-1.3415,-1.3422,-1.3463,-1.3463,-1.3467,-1.3467,-1.3467]},{"header":{"parameterUnit":"m.s-1","parameterCategory":1,"la1":30.2991,"la2":30.254,"lo1":-89.0895,"lo2":-89.0444,"dy":0.0017,"dx":0.0017,"nx":28,"ny":28,"refTime":"2024-08-11T09:00:00:Z","depth":0,"parameterNumber":3,"parameterNumberName":"V-component_of_WINDS"},"data":[0,0,0,0,0,0,0,0,0,0,0,0,0,0,0,0,0,0,0,0,0,0,0,0,0,0,0,0,0,0,0,0,0,0,0,0,0,0,0,0,0,0,0,0,0,0,0,0,0,0,0,0,0,0,0,0,0,0,-2.0383,-2.0382,0,-2.0309,-2.0308,-2.0307,-2.0306,-2.0307,-2.0308,-2.0309,-2.0229,-2.0226,-2.0223,0,0,0,0,0,0,0,0,0,0,0,0,0,-2.052,-2.0517,-2.0383,-2.0382,-2.0381,-2.0309,-2.0308,-2.0307,-2.0306,-2.0307,-2.0308,-2.031,-2.023,-2.0226,-2.0222,0,0,0,0,0,0,0,0,0,0,0,0,0,-2.0454,-2.0516,-2.0383,-2.0372,-2.0371,-2.0309,-2.0308,-2.0307,-2.0306,-2.0307,-2.0309,-2.031,-2.0231,-2.0226,-2.0222,-2.0165,0,0,-2.0208,-2.0206,0,0,0,0,0,0,0,0,-2.0458,-2.0449,-2.0375,-2.0373,-2.0371,-2.0318,-2.0326,-2.0259,-2.0306,-2.033,-2.0309,-2.0311,-2.0257,-2.025,-2.0233,-2.0161,-2.0158,-2.0208,-2.0205,-2.0203,-2.0201,0,0,0,0,0,0,0,-2.0463,-2.0452,-2.0354,-2.0374,-2.0371,-2.037,-2.0362,-2.0314,-2.0286,-2.0328,-2.0328,-2.032,-2.0256,-2.0238,-2.0231,-2.0156,-2.0208,-2.0204,-2.0201,-2.0199,-2.0031,-2.0029,0,0,0,0,0,0,-2.047,-2.0456,-2.0356,-2.0351,-2.0419,-2.0366,-2.0357,-2.0334,-2.0287,-2.0281,-2.0318,-2.032,-2.0245,-2.0237,-2.0228,-2.0155,-2.0203,-2.0199,-2.0196,-2.0032,-2.003,-2.0028,0,0,0,0,0,0,-2.0473,-2.0461,-2.0359,-2.0404,-2.0391,-2.0362,-2.0336,-2.0332,-2.0313,-2.028,-2.0274,-2.0305,-2.0245,-2.0235,-2.018,-2.0153,-2.0196,-2.0192,-2.0034,-2.0032,-2.0029,-2.0011,0,0,0,0,0,0,-2.0477,-2.0462,-2.0441,-2.0403,-2.0388,-2.0313,-2.0334,-2.0329,-2.0305,-2.0307,-2.0265,-2.026,-2.0246,-2.0187,-2.0176,-2.0147,-2.0189,-2.0037,-2.0033,-2.003,-2.0014,-2.0008,-2.0004,0,0,0,0,0,-2.0482,-2.0439,-2.044,-2.0428,-2.0362,-2.0312,-2.0303,-2.0289,-2.0303,-2.0281,-2.0259,-2.0261,-2.0159,-2.0181,-2.0169,-2.0139,-2.0038,-2.0034,-2.003,-2.0016,-2.001,-2.0004,0,0,0,0,0,0,-2.0473,-2.0434,-2.0435,-2.0379,-2.0349,-2.0312,-2.0283,-2.0283,-2.0247,-2.0249,-2.0233,-2.0223,-2.0168,-2.0149,-2.0175,-2.0079,-2.01,-2.0093,-2.0094,-2.0087,-2.0082,-2.0085,-2.0185,0,0,0,0,0,-2.0465,-2.0429,-2.0396,-2.035,-2.0335,-2.0312,-2.029,-2.0282,-2.0249,-2.0236,-2.0211,-2.0178,-2.0138,-2.0112,-2.0074,-2.0013,-2.0002,-1.9986,-1.998,-1.9976,-1.9969,-1.9932,-1.9923,-2.0016,-2.0016,-2.0016,0,0,-2.0447,-2.0421,-2.0399,-2.0348,-2.0323,-2.0284,-2.0301,-2.026,-2.023,-2.0229,-2.0175,-2.0156,-2.0118,-2.0059,-2.0032,-2.0041,-1.9942,-1.9971,-1.9968,-1.9963,-1.9927,-1.9918,-1.991,-2.0013,-2.0013,-2.0014,0,0,-2.0393,-2.0372,-2.033,-2.0305,-2.0269,-2.0254,-2.0244,-2.0207,-2.0194,-2.014,-2.0138,-2.0102,-2.0035,-2.0007,-1.9984,-1.992,-1.9919,-1.9909,-1.9879,-1.9843,-1.9836,-1.9829,-1.9802,-1.9793,-1.9903,-1.9903,-1.9903,0,-2.0375,-2.0318,-2.0307,-2.0265,-2.0241,-2.0241,-2.0196,-2.0173,-2.0125,-2.0107,-2.012,-2.0034,-2.0009,-1.9941,-1.9926,-1.9909,-1.9894,-1.9911,-1.9838,-1.9831,-1.9825,-1.9799,-1.9789,-1.9901,-1.9901,-1.9902,-1.9902,0,-2.0295,-2.0255,-2.0225,-2.018,-2.0153,-2.011,-2.0091,-2.0065,-2.006,-2.0043,-1.9986,-1.9957,-1.9911,-1.9895,-1.989,-1.9827,-1.9833,-1.9842,-1.9861,-1.9815,-1.979,-1.978,-1.9899,-1.99,-1.99,-1.9901,0,0,-2.0231,-2.0181,-2.017,-2.0148,-2.0108,-2.0076,-2.0033,-1.9989,-1.9965,-1.9933,-1.9893,-1.9837,-1.9844,-1.9818,-1.981,-1.9779,-1.9725,-1.9791,-1.9789,-1.9776,-1.9649,-1.9639,-1.9628,-1.9726,-1.9724,-1.9723,-1.9651,0,-2.017,-2.0093,-2.0082,-2.0013,-1.9975,-1.9974,-1.9936,-1.9906,-1.9889,-1.9852,-1.9834,-1.9792,-1.9807,-1.9791,-1.9761,-1.9738,-1.9699,-1.9744,-1.9685,-1.9683,-1.969,-1.9616,-1.9606,-1.954,-1.9642,-1.964,-1.9639,0,-2.0088,-2.0054,-1.9981,-1.9945,-1.9928,-1.9894,-1.9851,-1.9818,-1.9783,-1.9773,-1.9744,-1.9739,-1.9692,-1.9717,-1.9648,-1.9679,-1.9655,-1.9641,-1.9638,-1.9628,-1.9655,-1.96,-1.9519,-1.9507,-1.9624,-1.9625,-1.9627,0,-2.0043,-1.998,-1.9927,-1.9909,-1.9866,-1.9842,-1.9822,-1.979,-1.9764,-1.9727,-1.9709,-1.9668,-1.9644,-1.9611,-1.9594,-1.9614,-1.9526,-1.955,-1.9512,-1.9513,-1.949,-1.9491,-1.9399,-1.9483,-1.9483,-1.9483,-1.9483,0,-1.9974,-1.9928,-1.9906,-1.9873,-1.9821,-1.9809,-1.9758,-1.9739,-1.971,-1.9672,-1.967,-1.9634,-1.9616,-1.9577,-1.9564,-1.9507,-1.9497,-1.9485,-1.9481,-1.9483,-1.9483,-1.9463,-1.9465,-1.948,-1.9481,-1.9481,-1.9482,0,-1.9913,-1.9897,-1.9839,-1.9804,-1.9794,-1.9757,-1.9725,-1.9692,-1.9677,-1.9628,-1.9616,-1.9591,-1.9544,-1.9525,-1.9469,-1.946,-1.9393,-1.9395,-1.9404,-1.9402,-1.9364,-1.9366,-1.9252,-1.9234,-1.9334,-1.9333,-1.9332,0,-1.9867,-1.9832,-1.9793,-1.9768,-1.9748,-1.9708,-1.9682,-1.9669,-1.9641,-1.9599,-1.957,-1.9524,-1.9486,-1.9411,-1.9386,-1.9342,-1.934,-1.9303,-1.9333,-1.9334,-1.9333,-1.9334,-1.9328,-1.9296,-1.9295,-1.9294,-1.9293,0,-1.9786,-1.978,-1.9742,-1.9702,-1.967,-1.9638,-1.9605,-1.9585,-1.9567,-1.9535,-1.9488,-1.9458,-1.94,-1.9353,-1.9308,-1.9286,-1.9284,-1.9285,-1.9273,-1.9271,-1.9276,-1.9268,-1.9384,-1.9286,-1.9287,-1.9288,-1.9288,-1.9288,-1.9728,-1.9695,-1.9663,-1.962,-1.9595,-1.9565,-1.9531,-1.9512,-1.9473,-1.9425,-1.942,-1.9368,-1.9333,-1.9272,-1.9249,-1.9207,-1.9216,-1.92,-1.9195,-1.919,-1.9185,-1.9287,-1.9199,-1.9199,-1.9199,-1.92,-1.92,0,-1.9642,-1.9622,-1.9583,-1.9538,-1.9505,-1.9511,-1.9475,-1.9445,-1.94,-1.9369,-1.9332,-1.9276,-1.923,-1.9202,-1.9156,-1.9127,-1.9125,-1.9115,-1.9114,-1.9108,-1.9182,-1.9194,-1.9117,-1.9117,-1.9117,-1.9117,-1.9117,-1.9117,-1.9594,-1.9538,-1.9528,-1.9459,-1.9438,-1.9388,-1.9367,-1.9338,-1.9312,-1.9251,-1.9213,-1.9196,-1.9165,-1.9116,-1.9073,-1.9066,-1.9047,-1.9035,-1.9027,-1.9095,-1.9104,-1.9112,-1.9123,-1.9032,-1.9032,-1.8957,-1.8956,-1.8956]}]]